SL-8 DEB, 1590

Orbit data source: Space-Track

SL-8 DEB, 1590 is space debris in LEO originally from a launch on Sat, 18 Sep 1965 UTC launched from the Tyuratam Missile And Space Complex (TTMTR). Debris objects in space refer to the collection of defunct objects orbiting the Earth. Examples of debris include non-operational satellites, rocket bodies, and fragments generated from explosions, collisions, or faulty payload assembly.

Loading next visibility...
Identifier
1590, 1965-073G
Orbit
LEO
Last TLE update
1 day ago
Origin
Manufacturer
Unknown
Mission
Spacecraft
Bus & Motor
Unknown
Mass
Unknown
Launch date (UTC)
1965-09-18 (60 years ago)
Launch vehicle
Unknown
Launch site
Tyuratam Missile And Space Complex (TTMTR)
Object type
Payload
Rocket body
Debris
Shape & HBR
Unknown
Radar Cross Section
Small (<0.1 m²)

Expand to show TLE details & history

TLE from 1 day ago
0 SL-8 DEB
1 01590U 65073G   25198.21606704 -.00000237  00000-0 -88941-3 0  9994
2 01590  56.0845 278.9541 0176538 307.4932  81.2489 12.49669871716468
Epoch: 2025-07-17T05:11Z
TLE epoch observation values (Epoch: 2025-07-17T05:11:08.192Z)
Latitude
25.16182°
Longitude
-75.79718°
Altitude
1,448.438 km
Speed
7.149 km/s
True Right ascension
19h 49m 05s
True Declination
25° 02' 29"
Sunlit
Object was in full shadow at epoch
Visualization orbit readout
Latitude
22.51214°
Longitude
-81.03433°
Altitude
1,436.671 km
Speed
7.159 km/s
Apparent Right ascension
17h 17m 55s
Apparent Declination
-19° 24' 24"
Sunlit
Object is in full shadow
Visualization observer readout
Local Sidereal Time
20:47:54
Azimuth
230.204° WSW
Elevation
13.134°
Doppler factor
1
Orbital elements
Apogee altitude
1,604.169 km
Perigee altitude
1,327.222 km
Semi-major axis
7,843.832 km
Eccentricity
0.01765
Inclination
56.0845°
RAAN
278.9541°
Arg. of periapsis
307.4932°
True anomaly
83.25465°
Mean anomaly
81.2489°
Eccentric anomaly
82.25115°
Mean motion
3.12429 °/min
Orbital period
115.23 mins
BSTAR
-0.00088941
Loading maneuver chart data...
Loading SW <> Apogee altitude chart data...
Loading historical data...
Loading historical data...
Loading historical data...
Loading historical data...
Loading historical data...
Loading historical data...
Loading historical data...
|